Tracking 17142 objects as of 28-May-2015
HD Live streaming from Space Station

COSMOS 2286

Track COSMOS 2286 now!
COSMOS 2286 is classified as:


NORAD ID: 23194
Int'l Code: 1994-048A
Perigee: 3,623.6 km
Apogee: 36,786.4 km
Inclination: 67.3 °
Period: 718.6 minutes
Semi major axis: 26575 km
RCS: 14.1879 m2 (large)
Launch date: August 5, 1994
Source: Commonwealth of Independent States (former USSR) (CIS)
Your satellite tracking list
Your tracking list is empty





NASA's NSSDC Master Catalog

Two Line Element Set (TLE):
1 23194U 94048A   15146.34696611  .00000522  00000-0  00000+0 0  9995
2 23194 067.2791 062.9400 6239243 196.2339 346.1705 02.00386742152439

Source of the keplerian elements: AFSPC

N2YO: 285